Year,Month,Day,Hour,Minute,Value (Times are PST for temperature in C)
2013,04,25,00,00,7.70
2013,04,25,00,01,7.60
2013,04,25,00,02,7.60
2013,04,25,00,03,7.60
2013,04,25,00,04,7.60
2013,04,25,00,05,7.60
2013,04,25,00,06,7.50
2013,04,25,00,07,7.50
2013,04,25,00,08,7.50
2013,04,25,00,09,7.50
2013,04,25,00,10,7.40
2013,04,25,00,11,7.40
2013,04,25,00,12,7.40
2013,04,25,00,13,7.40
2013,04,25,00,14,7.40
2013,04,25,00,15,7.40
2013,04,25,00,16,7.40
2013,04,25,00,17,7.40
2013,04,25,00,18,7.30
2013,04,25,00,19,7.30
2013,04,25,00,20,7.30
2013,04,25,00,21,7.30
2013,04,25,00,22,7.20
2013,04,25,00,23,7.20
2013,04,25,00,24,7.20
2013,04,25,00,25,7.10
2013,04,25,00,26,7.10
2013,04,25,00,27,7.10
2013,04,25,00,28,7.10
2013,04,25,00,29,7.00
2013,04,25,00,30,7.00
2013,04,25,00,31,7.00
2013,04,25,00,32,7.00
2013,04,25,00,33,7.00
2013,04,25,00,34,7.00
2013,04,25,00,35,7.00
2013,04,25,00,36,7.00
2013,04,25,00,37,7.00
2013,04,25,00,38,7.00
2013,04,25,00,39,7.00
2013,04,25,00,40,7.00
2013,04,25,00,41,7.00
2013,04,25,00,42,7.00
2013,04,25,00,43,7.00
2013,04,25,00,44,7.00
2013,04,25,00,45,7.00
2013,04,25,00,46,6.90
2013,04,25,00,47,6.90
2013,04,25,00,48,6.90
2013,04,25,00,49,6.90
2013,04,25,00,50,6.90
2013,04,25,00,51,6.90
2013,04,25,00,52,6.90
2013,04,25,00,53,6.80
2013,04,25,00,54,6.80
2013,04,25,00,55,6.80
2013,04,25,00,56,6.80
2013,04,25,00,57,6.80
2013,04,25,00,58,6.80
2013,04,25,00,59,6.80
2013,04,25,01,00,6.90
2013,04,25,01,01,6.90
2013,04,25,01,02,7.00
2013,04,25,01,03,7.00
2013,04,25,01,04,7.10
2013,04,25,01,05,7.10
2013,04,25,01,06,7.20
2013,04,25,01,07,7.20
2013,04,25,01,08,7.20
2013,04,25,01,09,7.30
2013,04,25,01,10,7.30
2013,04,25,01,11,7.20
2013,04,25,01,12,7.20
2013,04,25,01,13,7.20
2013,04,25,01,14,7.20
2013,04,25,01,15,7.10
2013,04,25,01,16,7.10
2013,04,25,01,17,7.10
2013,04,25,01,18,7.10
2013,04,25,01,19,7.10
2013,04,25,01,20,7.10
2013,04,25,01,21,7.10
2013,04,25,01,22,7.00
2013,04,25,01,23,7.00
2013,04,25,01,24,7.00
2013,04,25,01,25,7.00
2013,04,25,01,26,7.00
2013,04,25,01,27,7.00
2013,04,25,01,28,7.00
2013,04,25,01,29,7.00
2013,04,25,01,30,7.00
2013,04,25,01,31,7.00
2013,04,25,01,32,7.00
2013,04,25,01,33,6.90
2013,04,25,01,34,6.90
2013,04,25,01,35,6.90
2013,04,25,01,36,6.90
2013,04,25,01,37,6.90
2013,04,25,01,38,6.90
2013,04,25,01,39,6.90
2013,04,25,01,40,6.90
2013,04,25,01,41,6.90
2013,04,25,01,42,6.80
2013,04,25,01,43,6.80
2013,04,25,01,44,6.80
2013,04,25,01,45,6.80
2013,04,25,01,46,6.80
2013,04,25,01,47,6.80
2013,04,25,01,48,6.80
2013,04,25,01,49,6.80
2013,04,25,01,50,6.80
2013,04,25,01,51,6.80
2013,04,25,01,52,6.70
2013,04,25,01,53,6.70
2013,04,25,01,54,6.70
2013,04,25,01,55,6.70
2013,04,25,01,56,6.70
2013,04,25,01,57,6.70
2013,04,25,01,58,6.70
2013,04,25,01,59,6.70
2013,04,25,02,00,6.70
2013,04,25,02,01,6.60
2013,04,25,02,02,6.60
2013,04,25,02,03,6.60
2013,04,25,02,04,6.60
2013,04,25,02,05,6.60
2013,04,25,02,06,6.60
2013,04,25,02,07,6.60
2013,04,25,02,08,6.60
2013,04,25,02,09,6.60
2013,04,25,02,10,6.60
2013,04,25,02,11,6.60
2013,04,25,02,12,6.70
2013,04,25,02,13,6.70
2013,04,25,02,14,6.70
2013,04,25,02,15,6.70
2013,04,25,02,16,6.70
2013,04,25,02,17,6.70
2013,04,25,02,18,6.80
2013,04,25,02,19,6.80
2013,04,25,02,20,6.80
2013,04,25,02,21,6.80
2013,04,25,02,22,6.80
2013,04,25,02,23,6.80
2013,04,25,02,24,6.80
2013,04,25,02,25,6.80
2013,04,25,02,26,6.80
2013,04,25,02,27,6.80
2013,04,25,02,28,6.80
2013,04,25,02,29,6.80
2013,04,25,02,30,6.90
2013,04,25,02,31,6.90
2013,04,25,02,32,6.90
2013,04,25,02,33,6.90
2013,04,25,02,34,6.90
2013,04,25,02,35,6.90
2013,04,25,02,36,6.90
2013,04,25,02,37,6.90
2013,04,25,02,38,6.90
2013,04,25,02,39,6.90
2013,04,25,02,40,6.90
2013,04,25,02,41,6.80
2013,04,25,02,42,6.80
2013,04,25,02,43,6.80
2013,04,25,02,44,6.80
2013,04,25,02,45,6.70
2013,04,25,02,46,6.70
2013,04,25,02,47,6.70
2013,04,25,02,48,6.70
2013,04,25,02,49,6.70
2013,04,25,02,50,6.70
2013,04,25,02,51,6.60
2013,04,25,02,52,6.60
2013,04,25,02,53,6.60
2013,04,25,02,54,6.50
2013,04,25,02,55,6.50
2013,04,25,02,56,6.40
2013,04,25,02,57,6.40
2013,04,25,02,58,6.40
2013,04,25,02,59,6.40
2013,04,25,03,00,6.30
2013,04,25,03,01,6.30
2013,04,25,03,02,6.30
2013,04,25,03,03,6.30
2013,04,25,03,04,6.30
2013,04,25,03,05,6.30
2013,04,25,03,06,6.30
2013,04,25,03,07,6.30
2013,04,25,03,08,6.30
2013,04,25,03,09,6.30
2013,04,25,03,10,6.30
2013,04,25,03,11,6.40
2013,04,25,03,12,6.40
2013,04,25,03,13,6.40
2013,04,25,03,14,6.40
2013,04,25,03,15,6.40
2013,04,25,03,16,6.40
2013,04,25,03,17,6.40
2013,04,25,03,18,6.40
2013,04,25,03,19,6.40
2013,04,25,03,20,6.30
2013,04,25,03,21,6.30
2013,04,25,03,22,6.30
2013,04,25,03,23,6.30
2013,04,25,03,24,6.30
2013,04,25,03,25,6.20
2013,04,25,03,26,6.20
2013,04,25,03,27,6.10
2013,04,25,03,28,6.10
2013,04,25,03,29,6.00
2013,04,25,03,30,6.00
2013,04,25,03,31,5.90
2013,04,25,03,32,5.90
2013,04,25,03,33,5.90
2013,04,25,03,34,5.80
2013,04,25,03,35,5.80
2013,04,25,03,36,5.80
2013,04,25,03,37,5.80
2013,04,25,03,38,5.90
2013,04,25,03,39,5.90
2013,04,25,03,40,6.00
2013,04,25,03,41,6.10
2013,04,25,03,42,6.10
2013,04,25,03,43,6.10
2013,04,25,03,44,6.10
2013,04,25,03,45,6.00
2013,04,25,03,46,6.00
2013,04,25,03,47,6.00
2013,04,25,03,48,6.00
2013,04,25,03,49,6.00
2013,04,25,03,50,6.00
2013,04,25,03,51,6.00
2013,04,25,03,52,6.10
2013,04,25,03,53,6.10
2013,04,25,03,54,6.10
2013,04,25,03,55,6.10
2013,04,25,03,56,6.20
2013,04,25,03,57,6.20
2013,04,25,03,58,6.30
2013,04,25,03,59,6.30
2013,04,25,04,00,6.30
2013,04,25,04,01,6.30
2013,04,25,04,02,6.30
2013,04,25,04,03,6.30
2013,04,25,04,04,6.30
2013,04,25,04,05,6.30
2013,04,25,04,06,6.30
2013,04,25,04,07,6.30
2013,04,25,04,08,6.30
2013,04,25,04,09,6.30
2013,04,25,04,10,6.30
2013,04,25,04,11,6.30
2013,04,25,04,12,6.30
2013,04,25,04,13,6.30
2013,04,25,04,14,6.30
2013,04,25,04,15,6.30
2013,04,25,04,16,6.30
2013,04,25,04,17,6.40
2013,04,25,04,18,6.40
2013,04,25,04,19,6.40
2013,04,25,04,20,6.40
2013,04,25,04,21,6.50
2013,04,25,04,22,6.50
2013,04,25,04,23,6.50
2013,04,25,04,24,6.50
2013,04,25,04,25,6.40
2013,04,25,04,26,6.40
2013,04,25,04,27,6.40
2013,04,25,04,28,6.40
2013,04,25,04,29,6.30
2013,04,25,04,30,6.30
2013,04,25,04,31,6.20
2013,04,25,04,32,6.20
2013,04,25,04,33,6.20
2013,04,25,04,34,6.20
2013,04,25,04,35,6.20
2013,04,25,04,36,6.20
2013,04,25,04,37,6.30
2013,04,25,04,38,6.30
2013,04,25,04,39,6.40
2013,04,25,04,40,6.40
2013,04,25,04,41,6.50
2013,04,25,04,42,6.50
2013,04,25,04,43,6.50
2013,04,25,04,44,6.50
2013,04,25,04,45,6.50
2013,04,25,04,46,6.40
2013,04,25,04,47,6.40
2013,04,25,04,48,6.40
2013,04,25,04,49,6.30
2013,04,25,04,50,6.30
2013,04,25,04,51,6.30
2013,04,25,04,52,6.30
2013,04,25,04,53,6.30
2013,04,25,04,54,6.30
2013,04,25,04,55,6.30
2013,04,25,04,56,6.30
2013,04,25,04,57,6.20
2013,04,25,04,58,6.20
2013,04,25,04,59,6.20
2013,04,25,05,00,6.30
2013,04,25,05,01,6.40
2013,04,25,05,02,6.40
2013,04,25,05,03,6.50
2013,04,25,05,04,6.60
2013,04,25,05,05,6.70
2013,04,25,05,06,6.70
2013,04,25,05,07,6.70
2013,04,25,05,08,6.80
2013,04,25,05,09,6.80
2013,04,25,05,10,6.80
2013,04,25,05,11,6.80
2013,04,25,05,12,6.80
2013,04,25,05,13,6.70
2013,04,25,05,14,6.70
2013,04,25,05,15,6.70
2013,04,25,05,16,6.60
2013,04,25,05,17,6.60
2013,04,25,05,18,6.60
2013,04,25,05,19,6.60
2013,04,25,05,20,6.50
2013,04,25,05,21,6.50
2013,04,25,05,22,6.40
2013,04,25,05,23,6.50
2013,04,25,05,24,6.60
2013,04,25,05,25,6.60
2013,04,25,05,26,6.60
2013,04,25,05,27,6.70
2013,04,25,05,28,6.70
2013,04,25,05,29,6.70
2013,04,25,05,30,6.70
2013,04,25,05,31,6.70
2013,04,25,05,32,6.70
2013,04,25,05,33,6.70
2013,04,25,05,34,6.70
2013,04,25,05,35,6.70
2013,04,25,05,36,6.70
2013,04,25,05,37,6.70
2013,04,25,05,38,6.70
2013,04,25,05,39,6.70
2013,04,25,05,40,6.70
2013,04,25,05,41,6.70
2013,04,25,05,42,6.70
2013,04,25,05,43,6.70
2013,04,25,05,44,6.70
2013,04,25,05,45,6.70
2013,04,25,05,46,6.70
2013,04,25,05,47,6.70
2013,04,25,05,48,6.70
2013,04,25,05,49,6.60
2013,04,25,05,50,6.60
2013,04,25,05,51,6.50
2013,04,25,05,52,6.50
2013,04,25,05,53,6.40
2013,04,25,05,54,6.30
2013,04,25,05,55,6.20
2013,04,25,05,56,6.10
2013,04,25,05,57,6.00
2013,04,25,05,58,6.00
2013,04,25,05,59,5.90
2013,04,25,06,00,5.70
2013,04,25,06,01,5.60
2013,04,25,06,02,5.50
2013,04,25,06,03,5.40
2013,04,25,06,04,5.30
2013,04,25,06,05,5.20
2013,04,25,06,06,5.20
2013,04,25,06,07,5.10
2013,04,25,06,08,5.00
2013,04,25,06,09,5.00
2013,04,25,06,10,4.90
2013,04,25,06,11,4.90
2013,04,25,06,12,4.90
2013,04,25,06,13,4.80
2013,04,25,06,14,4.80
2013,04,25,06,15,4.80
2013,04,25,06,16,4.70
2013,04,25,06,17,4.70
2013,04,25,06,18,4.60
2013,04,25,06,19,4.60
2013,04,25,06,20,4.60
2013,04,25,06,21,4.60
2013,04,25,06,22,4.60
2013,04,25,06,23,4.60
2013,04,25,06,24,4.60
2013,04,25,06,25,4.60
2013,04,25,06,26,4.60
2013,04,25,06,27,4.60
2013,04,25,06,28,4.60
2013,04,25,06,29,4.60
2013,04,25,06,30,4.60
2013,04,25,06,31,4.60
2013,04,25,06,32,4.60
2013,04,25,06,33,4.60
2013,04,25,06,34,4.60
2013,04,25,06,35,4.60
2013,04,25,06,36,4.60
2013,04,25,06,37,4.60
2013,04,25,06,38,4.60
2013,04,25,06,39,4.60
2013,04,25,06,40,4.60
2013,04,25,06,41,4.60
2013,04,25,06,42,4.60
2013,04,25,06,43,4.60
2013,04,25,06,44,4.60
2013,04,25,06,45,4.60
2013,04,25,06,46,4.70
2013,04,25,06,47,4.70
2013,04,25,06,48,4.70
2013,04,25,06,49,4.70
2013,04,25,06,50,4.80
2013,04,25,06,51,4.80
2013,04,25,06,52,4.80
2013,04,25,06,53,4.80
2013,04,25,06,54,4.80
2013,04,25,06,55,4.80
2013,04,25,06,56,4.80
2013,04,25,06,57,4.70
2013,04,25,06,58,4.80
2013,04,25,06,59,4.80
2013,04,25,07,00,4.80
2013,04,25,07,01,4.80
2013,04,25,07,02,4.80
2013,04,25,07,03,4.90
2013,04,25,07,04,4.90
2013,04,25,07,05,5.00
2013,04,25,07,06,5.00
2013,04,25,07,07,5.10
2013,04,25,07,08,5.10
2013,04,25,07,09,5.10
2013,04,25,07,10,5.20
2013,04,25,07,11,5.20
2013,04,25,07,12,5.30
2013,04,25,07,13,5.30
2013,04,25,07,14,5.30
2013,04,25,07,15,5.40
2013,04,25,07,16,5.40
2013,04,25,07,17,5.40
2013,04,25,07,18,5.50
2013,04,25,07,19,5.50
2013,04,25,07,20,5.60
2013,04,25,07,21,5.60
2013,04,25,07,22,5.60
2013,04,25,07,23,5.70
2013,04,25,07,24,5.80
2013,04,25,07,25,5.90
2013,04,25,07,26,5.90
2013,04,25,07,27,6.00
2013,04,25,07,28,6.10
2013,04,25,07,29,6.10
2013,04,25,07,30,6.20
2013,04,25,07,31,6.30
2013,04,25,07,32,6.40
2013,04,25,07,33,6.50
2013,04,25,07,34,6.60
2013,04,25,07,35,6.70
2013,04,25,07,36,6.80
2013,04,25,07,37,6.90
2013,04,25,07,38,7.00
2013,04,25,07,39,7.10
2013,04,25,07,40,7.30
2013,04,25,07,41,7.40
2013,04,25,07,42,7.50
2013,04,25,07,43,7.60
2013,04,25,07,44,7.80
2013,04,25,07,45,7.90
2013,04,25,07,46,8.00
2013,04,25,07,47,8.10
2013,04,25,07,48,8.20
2013,04,25,07,49,8.30
2013,04,25,07,50,8.40
2013,04,25,07,51,8.50
2013,04,25,07,52,8.60
2013,04,25,07,53,8.70
2013,04,25,07,54,8.80
2013,04,25,07,55,8.90
2013,04,25,07,56,9.00
2013,04,25,07,57,9.10
2013,04,25,07,58,9.10
2013,04,25,07,59,9.20
2013,04,25,08,00,9.30
2013,04,25,08,01,9.40
2013,04,25,08,02,9.50
2013,04,25,08,03,9.60
2013,04,25,08,04,9.70
2013,04,25,08,05,9.80
2013,04,25,08,06,9.80
2013,04,25,08,07,9.90
2013,04,25,08,08,10.00
2013,04,25,08,09,10.10
2013,04,25,08,10,10.20
2013,04,25,08,11,10.20
2013,04,25,08,12,10.40
2013,04,25,08,13,10.50
2013,04,25,08,14,10.60
2013,04,25,08,15,10.70
2013,04,25,08,16,10.80
2013,04,25,08,17,10.80
2013,04,25,08,18,11.00
2013,04,25,08,19,11.10
2013,04,25,08,20,11.20
2013,04,25,08,21,11.40
2013,04,25,08,22,11.50
2013,04,25,08,23,11.70
2013,04,25,08,24,11.80
2013,04,25,08,25,12.00
2013,04,25,08,26,12.10
2013,04,25,08,27,12.30
2013,04,25,08,28,12.40
2013,04,25,08,29,12.60
2013,04,25,08,30,12.70
2013,04,25,08,31,12.80
2013,04,25,08,32,12.90
2013,04,25,08,33,12.90
2013,04,25,08,34,12.90
2013,04,25,08,35,12.90
2013,04,25,08,36,12.90
2013,04,25,08,37,12.90
2013,04,25,08,38,12.90
2013,04,25,08,39,12.90
2013,04,25,08,40,12.90
2013,04,25,08,41,12.90
2013,04,25,08,42,13.00
2013,04,25,08,43,13.00
2013,04,25,08,44,13.10
2013,04,25,08,45,13.10
2013,04,25,08,46,13.10
2013,04,25,08,47,13.00
2013,04,25,08,48,13.00
2013,04,25,08,49,13.00
2013,04,25,08,50,12.90
2013,04,25,08,51,12.90
2013,04,25,08,52,12.70
2013,04,25,08,53,12.60
2013,04,25,08,54,12.40
2013,04,25,08,55,12.20
2013,04,25,08,56,12.10
2013,04,25,08,57,12.00
2013,04,25,08,58,12.00
2013,04,25,08,59,11.90
2013,04,25,09,00,11.90
2013,04,25,09,01,11.90
2013,04,25,09,02,11.90
2013,04,25,09,03,11.90
2013,04,25,09,04,11.90
2013,04,25,09,05,11.90
2013,04,25,09,06,12.00
2013,04,25,09,07,12.00
2013,04,25,09,08,12.10
2013,04,25,09,09,12.10
2013,04,25,09,10,12.10
2013,04,25,09,11,12.20
2013,04,25,09,12,12.20
2013,04,25,09,13,12.20
2013,04,25,09,14,12.20
2013,04,25,09,15,12.20
2013,04,25,09,16,12.20
2013,04,25,09,17,12.30
2013,04,25,09,18,12.30
2013,04,25,09,19,12.30
2013,04,25,09,20,12.40
2013,04,25,09,21,12.50
2013,04,25,09,22,12.60
2013,04,25,09,23,12.70
2013,04,25,09,24,12.80
2013,04,25,09,25,12.90
2013,04,25,09,26,13.00
2013,04,25,09,27,13.10
2013,04,25,09,28,13.20
2013,04,25,09,29,13.30
2013,04,25,09,30,13.40
2013,04,25,09,31,13.50
2013,04,25,09,32,13.60
2013,04,25,09,33,13.60
2013,04,25,09,34,13.70
2013,04,25,09,35,13.70
2013,04,25,09,36,13.70
2013,04,25,09,37,13.80
2013,04,25,09,38,13.90
2013,04,25,09,39,13.90
2013,04,25,09,40,14.00
2013,04,25,09,41,14.00
2013,04,25,09,42,13.90
2013,04,25,09,43,13.90
2013,04,25,09,44,13.90
2013,04,25,09,45,14.00
2013,04,25,09,46,14.00
2013,04,25,09,47,14.00
2013,04,25,09,48,13.90
2013,04,25,09,49,13.90
2013,04,25,09,50,13.70
2013,04,25,09,51,13.60
2013,04,25,09,52,13.50
2013,04,25,09,53,13.40
2013,04,25,09,54,13.30
2013,04,25,09,55,13.10
2013,04,25,09,56,12.90
2013,04,25,09,57,12.80
2013,04,25,09,58,12.70
2013,04,25,09,59,12.60
2013,04,25,10,00,12.60
2013,04,25,10,01,12.60
2013,04,25,10,02,12.70
2013,04,25,10,03,12.80
2013,04,25,10,04,12.90
2013,04,25,10,05,12.90
2013,04,25,10,06,12.90
2013,04,25,10,07,12.90
2013,04,25,10,08,12.90
2013,04,25,10,09,12.80
2013,04,25,10,10,12.80
2013,04,25,10,11,12.80
2013,04,25,10,12,13.00
2013,04,25,10,13,13.10
2013,04,25,10,14,13.20
2013,04,25,10,15,13.30
2013,04,25,10,16,13.40
2013,04,25,10,17,13.60
2013,04,25,10,18,13.70
2013,04,25,10,19,13.90
2013,04,25,10,20,13.90
2013,04,25,10,21,13.80
2013,04,25,10,22,13.70
2013,04,25,10,23,13.70
2013,04,25,10,24,13.80
2013,04,25,10,25,13.80
2013,04,25,10,26,14.00
2013,04,25,10,27,14.20
2013,04,25,10,28,14.40
2013,04,25,10,29,14.50
2013,04,25,10,30,14.60
2013,04,25,10,31,14.50
2013,04,25,10,32,14.50
2013,04,25,10,33,14.40
2013,04,25,10,34,14.30
2013,04,25,10,35,14.20
2013,04,25,10,36,14.20
2013,04,25,10,37,14.20
2013,04,25,10,38,14.20
2013,04,25,10,39,14.30
2013,04,25,10,40,14.40
2013,04,25,10,41,14.50
2013,04,25,10,42,14.70
2013,04,25,10,43,14.80
2013,04,25,10,44,14.80
2013,04,25,10,45,14.90
2013,04,25,10,46,14.90
2013,04,25,10,47,15.00
2013,04,25,10,48,15.20
2013,04,25,10,49,15.30
2013,04,25,10,50,15.30
2013,04,25,10,51,15.30
2013,04,25,10,52,15.30
2013,04,25,10,53,15.10
2013,04,25,10,54,14.70
2013,04,25,10,55,14.30
2013,04,25,10,56,14.10
2013,04,25,10,57,14.00
2013,04,25,10,58,13.90
2013,04,25,10,59,13.70
2013,04,25,11,00,13.60
2013,04,25,11,01,13.50
2013,04,25,11,02,13.60
2013,04,25,11,03,13.70
2013,04,25,11,04,13.90
2013,04,25,11,05,14.20
2013,04,25,11,06,14.40
2013,04,25,11,07,14.70
2013,04,25,11,08,14.90
2013,04,25,11,09,15.20
2013,04,25,11,10,15.30
2013,04,25,11,11,15.20
2013,04,25,11,12,15.20
2013,04,25,11,13,15.10
2013,04,25,11,14,15.10
2013,04,25,11,15,15.20
2013,04,25,11,16,15.30
2013,04,25,11,17,15.30
2013,04,25,11,18,15.40
2013,04,25,11,19,15.50
2013,04,25,11,20,15.60
2013,04,25,11,21,15.70
2013,04,25,11,22,15.80
2013,04,25,11,23,15.90
2013,04,25,11,24,15.90
2013,04,25,11,25,16.00
2013,04,25,11,26,16.20
2013,04,25,11,27,16.30
2013,04,25,11,28,16.30
2013,04,25,11,29,16.20
2013,04,25,11,30,16.10
2013,04,25,11,31,15.90
2013,04,25,11,32,15.80
2013,04,25,11,33,15.70
2013,04,25,11,34,15.60
2013,04,25,11,35,15.50
2013,04,25,11,36,15.50
2013,04,25,11,37,15.50
2013,04,25,11,38,15.40
2013,04,25,11,39,15.50
2013,04,25,11,40,15.50
2013,04,25,11,41,15.50
2013,04,25,11,42,15.40
2013,04,25,11,43,15.30
2013,04,25,11,44,15.30
2013,04,25,11,45,15.20
2013,04,25,11,46,15.10
2013,04,25,11,47,15.10
2013,04,25,11,48,14.90
2013,04,25,11,49,14.80
2013,04,25,11,50,14.70
2013,04,25,11,51,14.80
2013,04,25,11,52,15.00
2013,04,25,11,53,15.20
2013,04,25,11,54,15.50
2013,04,25,11,55,15.80
2013,04,25,11,56,16.10
2013,04,25,11,57,16.30
2013,04,25,11,58,16.50
2013,04,25,11,59,16.60
2013,04,25,12,00,16.70
2013,04,25,12,01,16.80
2013,04,25,12,02,16.90
2013,04,25,12,03,17.10
2013,04,25,12,04,17.20
2013,04,25,12,05,17.30
2013,04,25,12,06,17.30
2013,04,25,12,07,17.30
2013,04,25,12,08,17.20
2013,04,25,12,09,17.00
2013,04,25,12,10,16.80
2013,04,25,12,11,16.60
2013,04,25,12,12,16.40
2013,04,25,12,13,16.40
2013,04,25,12,14,16.50
2013,04,25,12,15,16.60
2013,04,25,12,16,16.70
2013,04,25,12,17,16.80
2013,04,25,12,18,16.80
2013,04,25,12,19,16.90
2013,04,25,12,20,16.90
2013,04,25,12,21,16.90
2013,04,25,12,22,16.90
2013,04,25,12,23,16.90
2013,04,25,12,24,16.90
2013,04,25,12,25,16.90
2013,04,25,12,26,16.90
2013,04,25,12,27,16.90
2013,04,25,12,28,17.00
2013,04,25,12,29,17.10
2013,04,25,12,30,17.10
2013,04,25,12,31,17.10
2013,04,25,12,32,17.00
2013,04,25,12,33,16.90
2013,04,25,12,34,16.90
2013,04,25,12,35,16.80
2013,04,25,12,36,16.80
2013,04,25,12,37,16.70
2013,04,25,12,38,16.60
2013,04,25,12,39,16.50
2013,04,25,12,40,16.30
2013,04,25,12,41,16.20
2013,04,25,12,42,16.10
2013,04,25,12,43,16.00
2013,04,25,12,44,16.00
2013,04,25,12,45,16.00
2013,04,25,12,46,15.90
2013,04,25,12,47,15.80
2013,04,25,12,48,15.80
2013,04,25,12,49,15.80
2013,04,25,12,50,15.80
2013,04,25,12,51,15.80
2013,04,25,12,52,15.80
2013,04,25,12,53,15.80
2013,04,25,12,54,15.90
2013,04,25,12,55,16.00
2013,04,25,12,56,16.00
2013,04,25,12,57,16.10
2013,04,25,12,58,16.10
2013,04,25,12,59,16.10
2013,04,25,13,00,16.10
2013,04,25,13,01,16.10
2013,04,25,13,02,16.00
2013,04,25,13,03,16.00
2013,04,25,13,04,16.00
2013,04,25,13,05,16.10
2013,04,25,13,06,16.20
2013,04,25,13,07,16.20
2013,04,25,13,08,16.20
2013,04,25,13,09,16.20
2013,04,25,13,10,16.20
2013,04,25,13,11,16.10
2013,04,25,13,12,16.20
2013,04,25,13,13,16.20
2013,04,25,13,14,16.30
2013,04,25,13,15,16.30
2013,04,25,13,16,16.30
2013,04,25,13,17,16.30
2013,04,25,13,18,16.30
2013,04,25,13,19,16.20
2013,04,25,13,20,16.10
2013,04,25,13,21,16.00
2013,04,25,13,22,16.00
2013,04,25,13,23,16.10
2013,04,25,13,24,16.20
2013,04,25,13,25,16.20
2013,04,25,13,26,16.30
2013,04,25,13,27,16.40
2013,04,25,13,28,16.40
2013,04,25,13,29,16.50
2013,04,25,13,30,16.60
2013,04,25,13,31,16.60
2013,04,25,13,32,16.60
2013,04,25,13,33,16.70
2013,04,25,13,34,16.80
2013,04,25,13,35,16.80
2013,04,25,13,36,16.90
2013,04,25,13,37,17.00
2013,04,25,13,38,17.10
2013,04,25,13,39,17.20
2013,04,25,13,40,17.20
2013,04,25,13,41,17.30
2013,04,25,13,42,17.30
2013,04,25,13,43,17.40
2013,04,25,13,44,17.50
2013,04,25,13,45,17.60
2013,04,25,13,46,17.70
2013,04,25,13,47,17.80
2013,04,25,13,48,17.90
2013,04,25,13,49,17.90
2013,04,25,13,50,17.90
2013,04,25,13,51,17.90
2013,04,25,13,52,18.00
2013,04,25,13,53,18.00
2013,04,25,13,54,18.00
2013,04,25,13,55,18.10
2013,04,25,13,56,18.10
2013,04,25,13,57,18.00
2013,04,25,13,58,17.90
2013,04,25,13,59,17.90
2013,04,25,14,00,17.70
2013,04,25,14,01,17.60
2013,04,25,14,02,17.60
2013,04,25,14,03,17.60
2013,04,25,14,04,17.60
2013,04,25,14,05,17.70
2013,04,25,14,06,17.70
2013,04,25,14,07,17.70
2013,04,25,14,08,17.50
2013,04,25,14,09,17.30
2013,04,25,14,10,17.10
2013,04,25,14,11,17.00
2013,04,25,14,12,16.90
2013,04,25,14,13,16.80
2013,04,25,14,14,16.70
2013,04,25,14,15,16.70
2013,04,25,14,16,16.70
2013,04,25,14,17,16.70
2013,04,25,14,18,16.80
2013,04,25,14,19,16.80
2013,04,25,14,20,16.90
2013,04,25,14,21,16.80
2013,04,25,14,22,16.80
2013,04,25,14,23,16.90
2013,04,25,14,24,17.00
2013,04,25,14,25,17.00
2013,04,25,14,26,16.90
2013,04,25,14,27,16.80
2013,04,25,14,28,16.70
2013,04,25,14,29,16.80
2013,04,25,14,30,16.90
2013,04,25,14,31,17.00
2013,04,25,14,32,17.20
2013,04,25,14,33,17.40
2013,04,25,14,34,17.40
2013,04,25,14,35,17.40
2013,04,25,14,36,17.40
2013,04,25,14,37,17.30
2013,04,25,14,38,17.30
2013,04,25,14,39,17.30
2013,04,25,14,40,17.30
2013,04,25,14,41,17.40
2013,04,25,14,42,17.40
2013,04,25,14,43,17.40
2013,04,25,14,44,17.40
2013,04,25,14,45,17.30
2013,04,25,14,46,17.30
2013,04,25,14,47,17.20
2013,04,25,14,48,17.20
2013,04,25,14,49,17.10
2013,04,25,14,50,17.10
2013,04,25,14,51,17.10
2013,04,25,14,52,17.00
2013,04,25,14,53,16.90
2013,04,25,14,54,16.80
2013,04,25,14,55,16.80
2013,04,25,14,56,16.80
2013,04,25,14,57,16.80
2013,04,25,14,58,16.90
2013,04,25,14,59,17.00
2013,04,25,15,00,17.10
2013,04,25,15,01,17.10
2013,04,25,15,02,17.10
2013,04,25,15,03,17.10
2013,04,25,15,04,17.10
2013,04,25,15,05,17.00
2013,04,25,15,06,17.00
2013,04,25,15,07,17.00
2013,04,25,15,08,16.90
2013,04,25,15,09,16.80
2013,04,25,15,10,16.70
2013,04,25,15,11,16.70
2013,04,25,15,12,16.60
2013,04,25,15,13,16.60
2013,04,25,15,14,16.60
2013,04,25,15,15,16.60
2013,04,25,15,16,16.70
2013,04,25,15,17,16.60
2013,04,25,15,18,16.60
2013,04,25,15,19,16.50
2013,04,25,15,20,16.50
2013,04,25,15,21,16.40
2013,04,25,15,22,16.40
2013,04,25,15,23,16.50
2013,04,25,15,24,16.50
2013,04,25,15,25,16.60
2013,04,25,15,26,16.50
2013,04,25,15,27,16.40
2013,04,25,15,28,16.40
2013,04,25,15,29,16.40
2013,04,25,15,30,16.30
2013,04,25,15,31,16.30
2013,04,25,15,32,16.40
2013,04,25,15,33,16.40
2013,04,25,15,34,16.40
2013,04,25,15,35,16.40
2013,04,25,15,36,16.40
2013,04,25,15,37,16.50
2013,04,25,15,38,16.50
2013,04,25,15,39,16.50
2013,04,25,15,40,16.60
2013,04,25,15,41,16.70
2013,04,25,15,42,16.70
2013,04,25,15,43,16.70
2013,04,25,15,44,16.70
2013,04,25,15,45,16.60
2013,04,25,15,46,16.60
2013,04,25,15,47,16.50
2013,04,25,15,48,16.50
2013,04,25,15,49,16.40
2013,04,25,15,50,16.30
2013,04,25,15,51,16.30
2013,04,25,15,52,16.30
2013,04,25,15,53,16.30
2013,04,25,15,54,16.30
2013,04,25,15,55,16.30
2013,04,25,15,56,16.40
2013,04,25,15,57,16.40
2013,04,25,15,58,16.40
2013,04,25,15,59,16.50
2013,04,25,16,00,16.60
2013,04,25,16,01,16.70
2013,04,25,16,02,16.70
2013,04,25,16,03,16.60
2013,04,25,16,04,16.40
2013,04,25,16,05,16.30
2013,04,25,16,06,16.20
2013,04,25,16,07,16.20
2013,04,25,16,08,16.20
2013,04,25,16,09,16.20
2013,04,25,16,10,16.30
2013,04,25,16,11,16.30
2013,04,25,16,12,16.20
2013,04,25,16,13,16.20
2013,04,25,16,14,16.20
2013,04,25,16,15,16.30
2013,04,25,16,16,16.30
2013,04,25,16,17,16.30
2013,04,25,16,18,16.40
2013,04,25,16,19,16.40
2013,04,25,16,20,16.50
2013,04,25,16,21,16.60
2013,04,25,16,22,16.70
2013,04,25,16,23,16.70
2013,04,25,16,24,16.80
2013,04,25,16,25,16.90
2013,04,25,16,26,17.00
2013,04,25,16,27,17.10
2013,04,25,16,28,17.20
2013,04,25,16,29,17.30
2013,04,25,16,30,17.30
2013,04,25,16,31,17.30
2013,04,25,16,32,17.30
2013,04,25,16,33,17.20
2013,04,25,16,34,17.20
2013,04,25,16,35,17.10
2013,04,25,16,36,17.10
2013,04,25,16,37,17.00
2013,04,25,16,38,16.90
2013,04,25,16,39,16.90
2013,04,25,16,40,16.90
2013,04,25,16,41,16.90
2013,04,25,16,42,16.80
2013,04,25,16,43,16.70
2013,04,25,16,44,16.70
2013,04,25,16,45,16.60
2013,04,25,16,46,16.60
2013,04,25,16,47,16.50
2013,04,25,16,48,16.40
2013,04,25,16,49,16.40
2013,04,25,16,50,16.40
2013,04,25,16,51,16.40
2013,04,25,16,52,16.30
2013,04,25,16,53,16.40
2013,04,25,16,54,16.40
2013,04,25,16,55,16.40
2013,04,25,16,56,16.40
2013,04,25,16,57,16.50
2013,04,25,16,58,16.50
2013,04,25,16,59,16.50
2013,04,25,17,00,16.50
2013,04,25,17,01,16.50
2013,04,25,17,02,16.60
2013,04,25,17,03,16.60
2013,04,25,17,04,16.60
2013,04,25,17,05,16.60
2013,04,25,17,06,16.60
2013,04,25,17,07,16.60
2013,04,25,17,08,16.60
2013,04,25,17,09,16.50
2013,04,25,17,10,16.50
2013,04,25,17,11,16.40
2013,04,25,17,12,16.30
2013,04,25,17,13,16.30
2013,04,25,17,14,16.30
2013,04,25,17,15,16.20
2013,04,25,17,16,16.20
2013,04,25,17,17,16.20
2013,04,25,17,18,16.10
2013,04,25,17,19,16.10
2013,04,25,17,20,16.00
2013,04,25,17,21,15.90
2013,04,25,17,22,15.90
2013,04,25,17,23,15.80
2013,04,25,17,24,15.80
2013,04,25,17,25,15.80
2013,04,25,17,26,15.80
2013,04,25,17,27,15.90
2013,04,25,17,28,15.90
2013,04,25,17,29,15.80
2013,04,25,17,30,15.80
2013,04,25,17,31,15.70
2013,04,25,17,32,15.70
2013,04,25,17,33,15.70
2013,04,25,17,34,15.70
2013,04,25,17,35,15.60
2013,04,25,17,36,15.50
2013,04,25,17,37,15.40
2013,04,25,17,38,15.30
2013,04,25,17,39,15.20
2013,04,25,17,40,15.10